Hourly Weather Kozyulkino

Today, 21 October, Wednesday

Time Temperature Precipitation Wind Pressure Humidity
00:00 -1°C° 0 mm 3 mps 748 mmHg 89%
01:00 -1°C° 0 mm 3 mps 748 mmHg 91%
02:00 -2°C° 0 mm 2 mps 748 mmHg 92%
03:00 -2°C° 0 mm 2 mps 748 mmHg 91%
04:00 -2°C° 0 mm 2 mps 748 mmHg 89%
05:00 -1°C° 0 mm 2 mps 749 mmHg 88%
06:00 -1°C° 0 mm 2 mps 749 mmHg 85%
07:00 +1°C° 0 mm 2 mps 748 mmHg 81%
08:00 +2°C° 0 mm 2 mps 748 mmHg 78%
09:00 +2°C° 0 mm 3 mps 748 mmHg 75%
10:00 +2°C° 0 mm 3 mps 748 mmHg 72%
11:00 +3°C° 0 mm 3 mps 748 mmHg 68%
12:00 +4°C° 0.1 mm 3 mps 747 mmHg 71%
13:00 +4°C° 0.1 mm 3 mps 747 mmHg 73%
14:00 +4°C° 0.1 mm 3 mps 747 mmHg 75%
15:00 +4°C° 0.2 mm 3 mps 746 mmHg 79%
16:00 +4°C° 0.2 mm 4 mps 746 mmHg 83%
17:00 +4°C° 0.2 mm 4 mps 745 mmHg 87%
18:00 +4°C° 0.1 mm 3 mps 745 mmHg 90%
19:00 +4°C° 0.1 mm 3 mps 745 mmHg 92%
20:00 +5°C° 0.1 mm 2 mps 745 mmHg 94%
21:00 +5°C° 0 mm 2 mps 744 mmHg 94%
22:00 +5°C° 0 mm 2 mps 744 mmHg 95%
23:00 +5°C° 0 mm 2 mps 744 mmHg 95%

Tomorrow, 22 October, Thursday

Time Temperature Precipitation Wind Pressure Humidity
00:00 +5°C° 0 mm 2 mps 744 mmHg 95%
01:00 +5°C° 0 mm 2 mps 744 mmHg 95%
02:00 +5°C° 0 mm 2 mps 744 mmHg 96%
03:00 +5°C° 0 mm 2 mps 744 mmHg 95%
04:00 +5°C° 0 mm 2 mps 744 mmHg 95%
05:00 +5°C° 0 mm 2 mps 744 mmHg 95%
06:00 +5°C° 0 mm 2 mps 744 mmHg 93%
07:00 +5°C° 0 mm 2 mps 744 mmHg 91%
08:00 +5°C° 0 mm 3 mps 744 mmHg 90%
09:00 +7°C° 0 mm 3 mps 744 mmHg 85%
10:00 +8°C° 0 mm 3 mps 743 mmHg 80%
11:00 +8°C° 0 mm 4 mps 743 mmHg 75%
12:00 +7°C° 0.2 mm 4 mps 743 mmHg 79%
13:00 +7°C° 0.2 mm 4 mps 742 mmHg 83%
14:00 +6°C° 0.2 mm 4 mps 742 mmHg 87%
15:00 +6°C° 0 mm 4 mps 741 mmHg 88%
16:00 +6°C° 0 mm 4 mps 740 mmHg 89%
17:00 +6°C° 0 mm 4 mps 740 mmHg 90%
18:00 +6°C° 0 mm 4 mps 740 mmHg 89%
19:00 +6°C° 0 mm 4 mps 739 mmHg 89%
20:00 +6°C° 0 mm 4 mps 739 mmHg 88%
21:00 +7°C° 0 mm 5 mps 739 mmHg 89%
22:00 +7°C° 0 mm 5 mps 739 mmHg 91%
23:00 +7°C° 0 mm 5 mps 739 mmHg 92%

Day after tomorrow, 23 October, Friday

Time Temperature Precipitation Wind Pressure Humidity
00:00 +7°C° 0 mm 5 mps 739 mmHg 92%
01:00 +7°C° 0 mm 5 mps 739 mmHg 93%
02:00 +7°C° 0 mm 5 mps 739 mmHg 93%
03:00 +8°C° 0 mm 5 mps 739 mmHg 92%
04:00 +8°C° 0 mm 5 mps 740 mmHg 92%
05:00 +8°C° 0 mm 5 mps 740 mmHg 92%
06:00 +8°C° 0 mm 5 mps 740 mmHg 92%
07:00 +8°C° 0 mm 5 mps 740 mmHg 92%
08:00 +8°C° 0 mm 5 mps 740 mmHg 93%
09:00 +9°C° 0 mm 5 mps 740 mmHg 89%
10:00 +10°C° 0 mm 5 mps 740 mmHg 86%
11:00 +12°C° 0 mm 4 mps 740 mmHg 82%
12:00 +13°C° 0 mm 4 mps 739 mmHg 80%
13:00 +13°C° 0 mm 5 mps 739 mmHg 79%
14:00 +14°C° 0 mm 5 mps 739 mmHg 77%
15:00 +13°C° 0 mm 5 mps 738 mmHg 80%
16:00 +13°C° 0 mm 5 mps 738 mmHg 84%
17:00 +12°C° 0 mm 5 mps 737 mmHg 87%
18:00 +12°C° 0.2 mm 5 mps 737 mmHg 87%
19:00 +12°C° 0.2 mm 5 mps 737 mmHg 87%
20:00 +11°C° 0.2 mm 6 mps 737 mmHg 87%
21:00 +12°C° 0.6 mm 5 mps 737 mmHg 88%
22:00 +12°C° 0.6 mm 5 mps 737 mmHg 90%
23:00 +12°C° 0.6 mm 5 mps 737 mmHg 91%

24 October, Saturday

Time Temperature Precipitation Wind Pressure Humidity
00:00 +10°C° 0 mm 5 mps 737 mmHg 92%
01:00 +11°C° 0 mm 4 mps 737 mmHg 92%
02:00 +11°C° 0 mm 4 mps 737 mmHg 93%
03:00 +10°C° 0 mm 4 mps 737 mmHg 93%
04:00 +10°C° 0 mm 4 mps 737 mmHg 94%
05:00 +9°C° 0 mm 3 mps 738 mmHg 94%
06:00 +9°C° 0 mm 3 mps 738 mmHg 93%
07:00 +9°C° 0 mm 3 mps 738 mmHg 93%
08:00 +9°C° 0 mm 3 mps 738 mmHg 92%
09:00 +10°C° 0 mm 3 mps 738 mmHg 86%
10:00 +11°C° 0 mm 3 mps 739 mmHg 80%
11:00 +12°C° 0 mm 3 mps 739 mmHg 74%
12:00 +12°C° 0 mm 3 mps 739 mmHg 73%
13:00 +13°C° 0 mm 2 mps 739 mmHg 72%
14:00 +13°C° 0 mm 2 mps 739 mmHg 71%
15:00 +12°C° 0 mm 2 mps 738 mmHg 76%
16:00 +11°C° 0 mm 1 mps 738 mmHg 80%
17:00 +11°C° 0 mm 1 mps 738 mmHg 85%
18:00 +10°C° 0 mm 1 mps 738 mmHg 86%
19:00 +10°C° 0 mm 1 mps 738 mmHg 88%
20:00 +10°C° 0 mm 1 mps 737 mmHg 89%
21:00 +10°C° 0 mm 1 mps 737 mmHg 89%
22:00 +9°C° 0 mm 2 mps 737 mmHg 90%
23:00 +9°C° 0 mm 2 mps 736 mmHg 91%

25 October, Sunday

Time Temperature Precipitation Wind Pressure Humidity
00:00 +9°C° 1.4 mm 2 mps 736 mmHg 93%
01:00 +9°C° 1.4 mm 3 mps 735 mmHg 94%
02:00 +9°C° 1.4 mm 3 mps 734 mmHg 96%
03:00 +10°C° 0.9 mm 3 mps 734 mmHg 96%
04:00 +10°C° 0.9 mm 3 mps 733 mmHg 95%
05:00 +10°C° 0.9 mm 3 mps 733 mmHg 95%
06:00 +10°C° 0.5 mm 3 mps 733 mmHg 94%
07:00 +9°C° 0.5 mm 3 mps 732 mmHg 94%
08:00 +9°C° 0.5 mm 3 mps 732 mmHg 94%
09:00 +8°C° 0.7 mm 4 mps 732 mmHg 92%
10:00 +8°C° 0.7 mm 4 mps 732 mmHg 90%
11:00 +8°C° 0.7 mm 4 mps 732 mmHg 88%
12:00 +8°C° 1.8 mm 4 mps 732 mmHg 88%
13:00 +8°C° 1.8 mm 4 mps 731 mmHg 87%
14:00 +9°C° 1.8 mm 3 mps 731 mmHg 86%
15:00 +9°C° 1.4 mm 3 mps 731 mmHg 88%
16:00 +8°C° 1.4 mm 3 mps 732 mmHg 91%
17:00 +8°C° 1.4 mm 2 mps 732 mmHg 93%
18:00 +8°C° 1.1 mm 2 mps 732 mmHg 94%
19:00 +8°C° 1.1 mm 2 mps 733 mmHg 94%
20:00 +8°C° 1.1 mm 2 mps 733 mmHg 94%
21:00 +8°C° 0.5 mm 3 mps 734 mmHg 93%
22:00 +7°C° 0.5 mm 4 mps 735 mmHg 92%
23:00 +7°C° 0.5 mm 5 mps 735 mmHg 90%

26 October, Monday

Time Temperature Precipitation Wind Pressure Humidity
00:00 +7°C° 0.1 mm 6 mps 736 mmHg 89%
01:00 +7°C° 0.1 mm 6 mps 737 mmHg 89%
02:00 +5°C° 0.1 mm 6 mps 737 mmHg 88%
03:00 +5°C° 0 mm 6 mps 738 mmHg 86%
04:00 +4°C° 0 mm 6 mps 739 mmHg 83%
05:00 +4°C° 0 mm 6 mps 740 mmHg 81%
06:00 +3°C° 0 mm 6 mps 740 mmHg 81%
07:00 +3°C° 0 mm 6 mps 741 mmHg 82%
08:00 +3°C° 0 mm 6 mps 742 mmHg 82%
09:00 +3°C° 0 mm 6 mps 742 mmHg 77%
10:00 +4°C° 0 mm 6 mps 743 mmHg 72%
11:00 +4°C° 0 mm 6 mps 743 mmHg 67%
12:00 +5°C° 0 mm 5 mps 744 mmHg 66%
13:00 +6°C° 0 mm 5 mps 744 mmHg 64%
14:00 +6°C° 0 mm 5 mps 744 mmHg 63%
15:00 +5°C° 0 mm 4 mps 745 mmHg 68%
16:00 +4°C° 0 mm 4 mps 745 mmHg 73%
17:00 +3°C° 0 mm 3 mps 746 mmHg 79%
18:00 +3°C° 0 mm 3 mps 747 mmHg 81%
19:00 +2°C° 0 mm 3 mps 747 mmHg 83%
20:00 +2°C° 0 mm 3 mps 748 mmHg 85%
21:00 +1°C° 0 mm 3 mps 748 mmHg 87%
22:00 +1°C° 0 mm 3 mps 748 mmHg 89%
23:00 +2°C° 0 mm 2 mps 749 mmHg 91%

27 October, Tuesday

Time Temperature Precipitation Wind Pressure Humidity
00:00 +1°C° 0 mm 2 mps 749 mmHg 91%
01:00 +1°C° 0 mm 2 mps 749 mmHg 92%
02:00 +1°C° 0 mm 2 mps 750 mmHg 92%
03:00 -1°C° 0 mm 2 mps 750 mmHg 92%
04:00 -1°C° 0 mm 2 mps 750 mmHg 92%
05:00 -1°C° 0 mm 2 mps 751 mmHg 91%
06:00 -1°C° 0 mm 2 mps 751 mmHg 89%
07:00 +1°C° 0 mm 2 mps 751 mmHg 86%
08:00 +2°C° 0 mm 2 mps 752 mmHg 83%
09:00 +3°C° 0 mm 2 mps 752 mmHg 75%
10:00 +4°C° 0 mm 2 mps 752 mmHg 67%
11:00 +6°C° 0 mm 2 mps 752 mmHg 59%
12:00 +7°C° 0 mm 1 mps 752 mmHg 57%
13:00 +8°C° 0 mm 1 mps 752 mmHg 54%
14:00 +8°C° 0 mm 1 mps 752 mmHg 52%
15:00 +7°C° 0 mm 1 mps 752 mmHg 57%
16:00 +6°C° 0 mm 1 mps 752 mmHg 63%
17:00 +5°C° 0 mm 1 mps 752 mmHg 68%
18:00 +4°C° 0 mm 1 mps 752 mmHg 69%
19:00 +4°C° 0 mm 1 mps 752 mmHg 70%
20:00 +4°C° 0 mm 1 mps 752 mmHg 71%
21:00 +3°C° 0 mm 1 mps 752 mmHg 71%
22:00 +3°C° 0 mm 1 mps 752 mmHg 71%
23:00 +3°C° 0 mm 1 mps 752 mmHg 72%
Show more